Flight Track Log - Related Links

Times and Time Zones

All times are in EST time to prevent confusion due to time zone crossing. See the BOE12 flight status page for this flight to view local times or setup timezone preferences in your user account.

Time Position Orientation Groundspeed Altitude Reporting Facility
EST Latitude Longitude Course Direction KTS MPH feet Rate Location/Type
Thu 02:13:36 PM 47.5106 -122.2830 144° Southeast 168 193 1,900  Level FlightAware ADS-B
Thu 02:13:48 PM 47.5026 -122.2750 146° Southeast 184 212 2,300 1,556 Climbing FlightAware ADS-B
Thu 02:14:03 PM 47.4913 -122.2630 144° Southeast 213 245 2,600 1,742 Climbing FlightAware ADS-B
Thu 02:14:19 PM 47.4778 -122.2480 143° Southeast 236 272 3,200 2,516 Climbing FlightAware ADS-B
Thu 02:14:34 PM 47.4635 -122.2330 145° Southeast 256 295 3,900 3,097 Climbing FlightAware ADS-B
Thu 02:14:50 PM 47.4481 -122.2170 145° Southeast 267 307 4,800 3,143 Climbing FlightAware ADS-B
Thu 02:14:55 PM 47.4433 -122.2120 145° Southeast 268 308 5,000 2,667 Climbing FlightAware ADS-B
Thu 02:14:59 PM 47.4391 -122.2080 147° Southeast 266 306 5,200 2,571 Climbing FlightAware ADS-B
Thu 02:15:02 PM 47.4356 -122.2060 159° South 264 304 5,300 2,571 Climbing FlightAware ADS-B
Thu 02:15:06 PM 47.4309 -122.2040 164° South 260 299 5,500 2,250 Climbing FlightAware ADS-B
Thu 02:15:10 PM 47.4262 -122.2020 164° South 259 298 5,600 1,500 Climbing FlightAware ADS-B
Thu 02:15:14 PM 47.4210 -122.2010 173° South 260 299 5,700 1,263 Climbing FlightAware ADS-B
Thu 02:15:29 PM 47.4029 -122.1980 174° South 263 303 6,000 968 Climbing FlightAware ADS-B
Thu 02:15:45 PM 47.3838 -122.1960 176° South 263 303 6,200 1,548 Climbing FlightAware ADS-B
Thu 02:16:00 PM 47.3651 -122.1930 174° South 266 306 6,800 3,097 Climbing FlightAware ADS-B
Thu 02:16:16 PM 47.3461 -122.1910 176° South 272 313 7,800 3,103 Climbing FlightAware ADS-B
Thu 02:16:29 PM 47.3297 -122.1890 175° South 276 318 8,300 2,143 Climbing FlightAware ADS-B
Thu 02:16:44 PM 47.3107 -122.1860 174° South 278 320 8,800 1,400 Climbing FlightAware ADS-B
Thu 02:16:59 PM 47.2906 -122.1830 174° South 285 328 9,000 774 Climbing FlightAware ADS-B
Thu 02:17:15 PM 47.2701 -122.1800 174° South 288 331 9,200 1,742 Climbing FlightAware ADS-B
Thu 02:17:30 PM 47.2497 -122.1770 174° South 292 336 9,900 2,933 Climbing FlightAware ADS-B
Thu 02:18:00 PM 47.2077 -122.1710 174° South 319 367 11,400 2,656 Climbing FlightAware ADS-B
Thu 02:18:31 PM 47.1592 -122.1630 174° South 360 414 12,600 2,754 Climbing FlightAware ADS-B
Thu 02:19:01 PM 47.1080 -122.1540 173° South 381 438 14,200 2,400 Climbing FlightAware ADS-B
Thu 02:19:31 PM 47.0548 -122.1460 174° South 386 444 15,000 814 Climbing FlightAware ADS-B
Thu 02:20:00 PM 47.0034 -122.1370 173° South 386 444 15,000  Level FlightAware ADS-B
Thu 02:20:31 PM 46.9487 -122.1190 167° South 390 449 15,000  Level FlightAware ADS-B
Thu 02:21:01 PM 46.8962 -122.0980 165° South 388 447 15,000  Level FlightAware ADS-B
Thu 02:21:32 PM 46.8436 -122.0780 165° South 388 447 15,000  Level FlightAware ADS-B
Thu 02:22:02 PM 46.7909 -122.0570 165° South 388 447 15,000  Level FlightAware ADS-B
Thu 02:22:33 PM 46.7376 -122.0370 166° South 390 449 15,000  Level FlightAware ADS-B
Thu 02:23:03 PM 46.6850 -122.0170 165° South 390 449 15,000  Level FlightAware ADS-B
Thu 02:23:19 PM 46.6566 -122.0060 165° South 390 449 15,000  Level FlightAware ADS-B
Thu 02:23:26 PM 46.6458 -122.0000 159° South 392 451 15,000  Level FlightAware ADS-B
Thu 02:23:31 PM 46.6373 -121.9950 158° South 396 456 15,000  Level FlightAware ADS-B
Thu 02:23:35 PM 46.6307 -121.9890 148° Southeast 398 458 15,000  Level FlightAware ADS-B
Thu 02:23:41 PM 46.6222 -121.9800 144° Southeast 400 460 15,000  Level FlightAware ADS-B
Thu 02:23:51 PM 46.6086 -121.9590 133° Southeast 403 464 15,000  Level FlightAware ADS-B
Thu 02:23:57 PM 46.6025 -121.9470 126° Southeast 406 467 15,000  Level FlightAware ADS-B
Thu 02:24:09 PM 46.5929 -121.9180 116° Southeast 407 468 15,000  Level FlightAware ADS-B
Thu 02:24:39 PM 46.5704 -121.8410 113° Southeast 406 467 15,000  Level FlightAware ADS-B
Thu 02:25:09 PM 46.5477 -121.7650 113° Southeast 407 468 15,000  Level FlightAware ADS-B
Thu 02:25:40 PM 46.5254 -121.6910 114° Southeast 406 467 15,000  Level FlightAware ADS-B
Thu 02:26:10 PM 46.5023 -121.6140 114° Southeast 408 470 15,000  Level FlightAware ADS-B
Thu 02:26:45 PM 46.4767 -121.5300 114° Southeast 407 468 15,000  Level FlightAware ADS-B
Thu 02:27:22 PM 46.4512 -121.4450 114° Southeast 373 429 15,000 88 Level FlightAware ADS-B
Thu 02:27:53 PM 46.4326 -121.3840 114° Southeast 313 360 15,100 79 Climbing FlightAware ADS-B
Thu 02:28:38 PM 46.4092 -121.3075 114° Southeast 287 330 15,100 -785 Level Seattle Center
Thu 02:29:40 PM 46.3817 -121.2186 114° Southeast 247 284 13,700 -1,366 Descending Seattle Center
Thu 02:30:41 PM 46.3564 -121.1344 113° Southeast 231 266 12,300 -836 Descending Seattle Center
Thu 02:31:42 PM 46.3319 -121.0547 114° Southeast 219 252 12,000 -148 Descending Seattle Center
Thu 02:32:43 PM 46.3069 -120.9719 114° Southeast 210 242 12,000  Level Seattle Center
Thu 02:33:44 PM 46.2833 -120.8956 114° Southeast 209 241 12,000  Level Seattle Center
Thu 02:34:45 PM 46.2592 -120.8206 115° Southeast 207 238 12,000  Level Seattle Center
Thu 02:35:46 PM 46.2361 -120.7472 114° Southeast 202 232 12,000  Level Seattle Center
Thu 02:36:47 PM 46.2122 -120.6706 114° Southeast 208 239 12,000  Level Seattle Center
Thu 02:37:48 PM 46.1917 -120.6056 115° Southeast 200 230 12,000  Level Seattle Center
Thu 02:38:49 PM 46.1658 -120.5244 115° Southeast 192 221 12,000  Level Seattle Center
Thu 02:39:50 PM 46.1422 -120.4517 115° Southeast 195 224 12,000  Level Seattle Center
Thu 02:40:51 PM 46.1208 -120.3786 113° Southeast 198 228 12,000  Level Seattle Center
Thu 02:41:52 PM 46.0975 -120.3072 115° Southeast 196 226 12,000  Level Seattle Center
Thu 02:42:53 PM 46.0753 -120.2361 114° Southeast 195 224 12,000  Level Seattle Center
Thu 02:43:54 PM 46.0528 -120.1650 114° Southeast 195 224 12,000  Level Seattle Center
Thu 02:44:55 PM 46.0297 -120.0944 115° Southeast 194 223 12,000  Level Seattle Center
Thu 02:45:56 PM 46.0100 -120.0183 110° East 194 223 12,000  Level Seattle Center
Thu 02:46:57 PM 46.0556 -119.9992 16° North 173 199 12,000  Level Seattle Center
Thu 02:47:58 PM 46.1075 -119.9986 360° North 174 200 12,000  Level Seattle Center
Thu 02:48:59 PM 46.1556 -119.9994 359° North 173 199 12,000  Level Seattle Center
Thu 02:50:00 PM 46.2031 -119.9992 360° North 171 197 12,000  Level Seattle Center
Thu 02:51:01 PM 46.2525 -120.0000 359° North 177 204 12,000  Level Seattle Center
Thu 02:52:02 PM 46.3022 -120.0014 359° North 180 207 12,000  Level Seattle Center
Thu 02:53:02 PM 46.3564 -119.9992 North 182 209 12,000  Level Seattle Center
Thu 02:54:03 PM 46.4044 -119.9981 North 176 203 12,000  Level Seattle Center
Thu 02:55:04 PM 46.4158 -119.9228 78° East 207 238 12,000  Level Seattle Center
Thu 02:56:05 PM 46.4158 -119.8408 90° East 203 234 12,000  Level Seattle Center
Thu 02:57:06 PM 46.4225 -119.7594 83° East 210 242 12,000  Level Seattle Center
Thu 02:58:07 PM 46.4728 -119.7506 North 168 193 12,000  Level Seattle Center
Thu 02:59:08 PM 46.5172 -119.7511 360° North 164 189 12,000  Level Seattle Center
Thu 03:00:09 PM 46.5642 -119.7492 North 168 193 12,000  Level Seattle Center
Thu 03:01:10 PM 46.6139 -119.7503 359° North 165 190 12,000 -49 Level Seattle Center
Thu 03:02:11 PM 46.6689 -119.7514 359° North 206 237 11,900  Descending Seattle Center
Thu 03:03:12 PM 46.7344 -119.7503 North 232 267 12,000 49 Climbing Seattle Center
Thu 03:04:13 PM 46.7992 -119.7492 North 234 269 12,000  Level Seattle Center
Thu 03:05:14 PM 46.8642 -119.7481 North 234 269 12,000  Level Seattle Center
Thu 03:06:15 PM 46.9358 -119.7483 360° North 239 275 12,000  Level Seattle Center
Thu 03:07:16 PM 47.0042 -119.7492 360° North 245 282 12,000  Level Seattle Center
Thu 03:08:17 PM 47.0697 -119.7494 360° North 238 274 12,000  Level Seattle Center
Thu 03:09:18 PM 47.1233 -119.7494 360° North 188 216 12,000  Level Seattle Center
Thu 03:10:18 PM 47.1725 -119.7503 359° North 177 204 12,000  Level Seattle Center
Thu 03:11:19 PM 47.2250 -119.7497 360° North 176 203 12,000  Level Seattle Center
Thu 03:12:20 PM 47.2725 -119.7492 360° North 171 197 12,000  Level Seattle Center
Thu 03:13:21 PM 47.3208 -119.7500 359° North 173 199 12,000  Level Seattle Center
Thu 03:14:22 PM 47.3694 -119.7514 359° North 174 200 12,000  Level Seattle Center
Thu 03:15:23 PM 47.4144 -119.7664 347° North 185 213 12,000  Level Seattle Center
Thu 03:16:24 PM 47.4164 -119.8389 272° West 167 192 12,000  Level Seattle Center
Thu 03:17:25 PM 47.4164 -119.9072 270° West 167 192 12,000  Level Seattle Center
Thu 03:18:26 PM 47.4150 -119.9744 268° West 164 189 12,000  Level Seattle Center
Thu 03:19:27 PM 47.4525 -120.0003 335° Northwest 173 199 12,000  Level Seattle Center
Thu 03:20:28 PM 47.5008 -120.0003 360° North 176 203 12,000  Level Seattle Center
Thu 03:21:29 PM 47.5494 -120.0003 360° North 166 191 12,000  Level Seattle Center
Thu 03:22:30 PM 47.5983 -120.0008 360° North 173 199 12,000  Level Seattle Center
Thu 03:23:31 PM 47.6433 -120.0011 360° North 167 192 12,000  Level Seattle Center
Thu 03:24:32 PM 47.6892 -120.0019 359° North 165 190 12,000  Level Seattle Center
Thu 03:25:33 PM 47.7322 -119.9864 14° North 164 189 12,000  Level Seattle Center
Thu 03:26:34 PM 47.7772 -119.9475 30° Northeast 173 199 12,000  Level Seattle Center
Thu 03:27:34 PM 47.8206 -119.9094 31° Northeast 179 206 12,000  Level Seattle Center
Thu 03:28:35 PM 47.8622 -119.8728 31° Northeast 176 203 12,000  Level Seattle Center
Thu 03:29:36 PM 47.9050 -119.8342 31° Northeast 180 207 12,000  Level Seattle Center
Thu 03:30:37 PM 47.9481 -119.7958 31° Northeast 179 206 12,000  Level Seattle Center
Thu 03:31:38 PM 47.9942 -119.7536 31° Northeast 180 207 12,000  Level Seattle Center
Thu 03:32:39 PM 47.9994 -119.6797 84° East 192 221 12,000  Level Seattle Center
Thu 03:33:40 PM 47.9992 -119.6028 90° East 185 213 12,000  Level Seattle Center
Thu 03:34:41 PM 47.9986 -119.5253 91° East 186 214 12,000  Level Seattle Center
Thu 03:35:42 PM 47.9994 -119.4467 89° East 189 217 12,000  Level Seattle Center
Thu 03:36:43 PM 47.9539 -119.4169 156° South 187 215 12,000  Level Seattle Center
Thu 03:37:43 PM 47.8889 -119.4172 180° South 247 284 12,000  Level Seattle Center
Thu 03:38:44 PM 47.8153 -119.4181 180° South 265 305 12,000  Level Seattle Center
Thu 03:39:45 PM 47.7436 -119.4172 180° South 260 299 12,000  Level Seattle Center
Thu 03:40:46 PM 47.6719 -119.4178 180° South 258 297 12,000  Level Seattle Center
Thu 03:41:47 PM 47.5956 -119.4172 180° South 256 295 12,000  Level Seattle Center
Thu 03:42:48 PM 47.5261 -119.4172 180° South 252 290 12,000  Level Seattle Center
Thu 03:43:49 PM 47.4556 -119.4169 180° South 253 291 12,000  Level Seattle Center
Thu 03:44:50 PM 47.3847 -119.4172 180° South 255 293 12,000  Level Seattle Center
Thu 03:45:51 PM 47.3136 -119.4167 180° South 257 296 12,000  Level Seattle Center
Thu 03:46:52 PM 47.2364 -119.4156 179° South 259 298 12,000  Level Seattle Center
Thu 03:47:53 PM 47.1656 -119.4161 180° South 259 298 12,000  Level Seattle Center
Thu 03:48:54 PM 47.0939 -119.4167 180° South 259 298 12,000  Level Seattle Center
Thu 03:49:55 PM 47.0153 -119.4169 180° South 265 305 12,000  Level Seattle Center
Thu 03:50:56 PM 46.9417 -119.4167 180° South 266 306 12,000  Level Seattle Center
Thu 03:51:57 PM 46.8689 -119.4167 180° South 261 300 12,000  Level Seattle Center
Thu 03:52:58 PM 46.7969 -119.4164 180° South 260 299 12,000  Level Seattle Center
Thu 03:53:59 PM 46.7242 -119.4167 180° South 258 297 12,000  Level Seattle Center
Thu 03:54:59 PM 46.6558 -119.4164 180° South 240 276 12,000  Level Seattle Center
Thu 03:56:00 PM 46.6006 -119.4158 180° South 184 212 12,000  Level Seattle Center
Thu 03:57:01 PM 46.5500 -119.4158 180° South 183 211 12,000  Level Seattle Center
Thu 03:58:02 PM 46.5003 -119.4167 181° South 182 209 12,000  Level Seattle Center
Thu 03:59:03 PM 46.4492 -119.4164 180° South 184 212 12,000  Level Seattle Center
Thu 04:00:04 PM 46.4158 -119.3700 136° Southeast 210 242 12,000  Level Seattle Center
Thu 04:01:05 PM 46.4158 -119.2814 90° East 206 237 12,000  Level Seattle Center
Thu 04:02:06 PM 46.4156 -119.1992 90° East 205 236 12,000  Level Seattle Center
Thu 04:03:07 PM 46.3750 -119.1664 151° Southeast 188 216 12,000  Level Seattle Center
Thu 04:04:08 PM 46.3244 -119.1664 180° South 183 211 12,000  Level Seattle Center
Thu 04:05:09 PM 46.2711 -119.1647 179° South 180 207 12,000  Level Seattle Center
Thu 04:06:10 PM 46.2214 -119.1667 182° South 181 208 12,000  Level Seattle Center
Thu 04:07:11 PM 46.1706 -119.1669 180° South 183 211 12,000  Level Seattle Center
Thu 04:08:12 PM 46.1197 -119.1667 180° South 183 211 12,000  Level Seattle Center
Thu 04:09:12 PM 46.0706 -119.1667 180° South 178 205 12,000  Level Seattle Center
Thu 04:10:13 PM 46.0169 -119.1669 180° South 180 207 12,000  Level Seattle Center
Thu 04:11:14 PM 46.0011 -119.0978 108° East 202 232 12,000  Level Seattle Center
Thu 04:12:15 PM 46.0003 -119.0206 91° East 195 224 12,000  Level Seattle Center
Thu 04:13:16 PM 46.0006 -118.9403 90° East 200 230 12,000  Level Seattle Center
Thu 04:14:17 PM 46.0006 -118.8533 90° East 203 234 12,000  Level Seattle Center
Thu 04:15:18 PM 46.0458 -118.8344 16° North 175 201 12,000  Level Seattle Center
Thu 04:16:19 PM 46.0939 -118.8347 360° North 172 198 12,000  Level Seattle Center
Thu 04:17:20 PM 46.1567 -118.8347 360° North 236 272 12,000  Level Seattle Center
Thu 04:18:21 PM 46.2289 -118.8347 360° North 241 277 12,000  Level Seattle Center
Thu 04:19:22 PM 46.2944 -118.8356 359° North 238 274 12,000  Level Seattle Center
Thu 04:20:23 PM 46.3597 -118.8342 North 237 273 12,000  Level Seattle Center
Thu 04:21:24 PM 46.4258 -118.8347 360° North 238 274 12,000  Level Seattle Center
Thu 04:22:25 PM 46.4978 -118.8336 North 240 276 12,000  Level Seattle Center
Thu 04:23:26 PM 46.5658 -118.8333 360° North 244 281 12,000  Level Seattle Center
Thu 04:24:27 PM 46.6239 -118.8347 359° North 202 232 12,000  Level Seattle Center
Thu 04:25:28 PM 46.6719 -118.8333 North 174 200 12,000  Level Seattle Center
Thu 04:26:29 PM 46.7197 -118.8333 360° North 173 199 12,000  Level Seattle Center
Thu 04:27:30 PM 46.7689 -118.8342 359° North 171 197 12,000  Level Seattle Center
Thu 04:28:31 PM 46.8172 -118.8344 360° North 174 200 12,000  Level Seattle Center
Thu 04:29:32 PM 46.8694 -118.8347 360° North 174 200 12,000  Level Seattle Center
Thu 04:30:33 PM 46.9131 -118.8028 27° Northeast 182 209 12,000  Level Seattle Center
Thu 04:31:34 PM 46.9519 -118.7608 36° Northeast 175 201 12,000  Level Seattle Center
Thu 04:32:35 PM 46.9928 -118.7194 35° Northeast 179 206 12,000 -49 Level Seattle Center
Thu 04:33:36 PM 47.0364 -118.6739 35° Northeast 181 208 11,900 -49 Descending Seattle Center
Thu 04:34:37 PM 47.0758 -118.6319 36° Northeast 177 204 11,900  Level Seattle Center
Thu 04:35:38 PM 47.1164 -118.5892 36° Northeast 181 208 11,900  Level Seattle Center
Thu 04:36:39 PM 47.1567 -118.5453 37° Northeast 185 213 11,900  Level Seattle Center
Thu 04:37:40 PM 47.2003 -118.4983 36° Northeast 183 211 11,900  Level Seattle Center
Thu 04:38:41 PM 47.1997 -118.4214 91° East 191 220 11,900  Level Seattle Center
Thu 04:39:42 PM 47.2003 -118.3464 89° East 185 213 11,900  Level Seattle Center
Thu 04:40:43 PM 47.2017 -118.2719 88° East 183 211 11,900  Level Seattle Center
Thu 04:41:44 PM 47.2006 -118.1969 91° East 185 213 11,900  Level Seattle Center
Thu 04:42:45 PM 47.2019 -118.1161 89° East 185 213 11,900  Level Seattle Center
Thu 04:43:46 PM 47.2008 -118.0411 91° East 185 213 11,900 49 Level Seattle Center
Thu 04:44:47 PM 47.2311 -118.0003 42° Northeast 187 215 12,000  Climbing Seattle Center
Thu 04:45:48 PM 47.2797 -118.0011 359° North 178 205 11,900 -49 Descending Seattle Center
Thu 04:46:49 PM 47.3278 -118.0011 360° North 174 200 11,900  Level Seattle Center
Thu 04:47:50 PM 47.3800 -118.0000 North 174 200 11,900  Level Seattle Center
Thu 04:48:51 PM 47.4278 -118.0008 359° North 173 199 11,900  Level Seattle Center
Thu 04:49:52 PM 47.4758 -118.0003 360° North 173 199 11,900  Level Seattle Center
Thu 04:50:53 PM 47.5247 -117.9994 North 177 204 11,900  Level Seattle Center
Thu 04:51:54 PM 47.5733 -118.0000 360° North 175 201 11,900  Level Seattle Center
Thu 04:52:55 PM 47.6178 -118.0211 342° North 177 204 11,900  Level Seattle Center
Thu 04:53:56 PM 47.6178 -118.0897 270° West 168 193 11,900  Level Seattle Center
Thu 04:54:57 PM 47.6178 -118.1603 270° West 170 196 11,900  Level Seattle Center
Thu 04:55:58 PM 47.6172 -118.2294 269° West 168 193 11,900  Level Seattle Center
Thu 04:56:59 PM 47.6183 -118.2989 271° West 168 193 11,900  Level Seattle Center
Thu 04:58:00 PM 47.6181 -118.3731 270° West 167 192 11,900  Level Seattle Center
Thu 04:59:01 PM 47.5933 -118.4167 230° Southwest 162 186 11,900  Level Seattle Center
Thu 05:00:02 PM 47.5433 -118.4161 180° South 175 201 11,900  Level Seattle Center
Thu 05:01:02 PM 47.4950 -118.4164 180° South 173 199 11,900  Level Seattle Center
Thu 05:02:03 PM 47.4461 -118.4156 179° South 175 201 11,900 49 Level Seattle Center
Thu 05:03:04 PM 47.4164 -118.4606 226° Southwest 177 204 12,000 49 Climbing Seattle Center
Thu 05:04:05 PM 47.4175 -118.5300 271° West 172 198 12,000  Level Seattle Center
Thu 05:05:06 PM 47.4169 -118.5992 269° West 169 194 12,000  Level Seattle Center
Thu 05:06:07 PM 47.4175 -118.6736 271° West 172 198 12,000  Level Seattle Center
Thu 05:07:08 PM 47.4169 -118.7419 269° West 167 192 12,000  Level Seattle Center
Thu 05:08:09 PM 47.4172 -118.8108 270° West 170 196 12,000  Level Seattle Center
Thu 05:09:10 PM 47.4567 -118.8339 338° Northwest 177 204 12,000  Level Seattle Center
Thu 05:10:11 PM 47.5058 -118.8331 North 179 206 12,000  Level Seattle Center
Thu 05:11:12 PM 47.5589 -118.8336 360° North 178 205 12,000  Level Seattle Center
Thu 05:12:13 PM 47.6083 -118.8333 360° North 179 206 12,000  Level Seattle Center
Thu 05:13:13 PM 47.6575 -118.8333 360° North 177 204 12,000  Level Seattle Center
Thu 05:14:14 PM 47.7072 -118.8333 360° North 177 204 12,000  Level Seattle Center
Thu 05:15:15 PM 47.7489 -118.7936 33° Northeast 178 205 12,000  Level Seattle Center
Thu 05:16:16 PM 47.7939 -118.7433 37° Northeast 186 214 12,000  Level Seattle Center
Thu 05:17:17 PM 47.8308 -118.6986 39° Northeast 179 206 12,000  Level Seattle Center
Thu 05:18:18 PM 47.8736 -118.6486 38° Northeast 182 209 12,000  Level Seattle Center
Thu 05:19:19 PM 47.9136 -118.6008 39° Northeast 186 214 12,000  Level Seattle Center
Thu 05:20:19 PM 47.9536 -118.5533 38° Northeast 187 215 12,000  Level Seattle Center
Thu 05:21:20 PM 47.9939 -118.5058 38° Northeast 187 215 12,000  Level Seattle Center
Thu 05:22:21 PM 48.0014 -118.4292 82° East 196 226 12,000  Level Seattle Center
Thu 05:23:22 PM 48.0014 -118.3508 90° East 189 217 12,000  Level Seattle Center
Thu 05:24:23 PM 48.0011 -118.2686 90° East 186 214 12,000  Level Seattle Center
Thu 05:25:24 PM 48.0003 -118.1911 91° East 187 215 12,000  Level Seattle Center
Thu 05:26:25 PM 48.0006 -118.1128 90° East 188 216 12,000  Level Seattle Center
Thu 05:27:25 PM 48.0006 -118.0344 90° East 190 219 12,000  Level Seattle Center
Thu 05:28:26 PM 48.0003 -117.9569 90° East 188 216 12,000  Level Seattle Center
Thu 05:29:27 PM 47.9978 -117.8789 93° East 189 217 12,000  Level Seattle Center
Thu 05:30:28 PM 47.9522 -117.8261 142° Southeast 188 216 12,000  Level Seattle Center
Thu 05:31:29 PM 47.9106 -117.7775 142° Southeast 191 220 12,000  Level Seattle Center
Thu 05:32:30 PM 47.8703 -117.7297 141° Southeast 188 216 12,000  Level Seattle Center
Thu 05:33:31 PM 47.8292 -117.6822 142° Southeast 187 215 12,000  Level Seattle Center
Thu 05:34:32 PM 47.7883 -117.6342 142° Southeast 187 215 12,000  Level Seattle Center
Thu 05:35:32 PM 47.7442 -117.5833 142° Southeast 187 215 12,000  Level Seattle Center
Thu 05:36:33 PM 47.7000 -117.5500 153° Southeast 186 214 12,000  Level Seattle Center
Thu 05:37:34 PM 47.6492 -117.5503 180° South 183 211 12,000  Level Seattle Center
Thu 05:38:35 PM 47.6006 -117.5503 180° South 178 205 12,000  Level Seattle Center
Thu 05:39:36 PM 47.5497 -117.5503 180° South 179 206 12,000  Level Seattle Center
Thu 05:40:37 PM 47.4983 -117.5500 180° South 184 212 12,000  Level Seattle Center
Thu 05:41:38 PM 47.4478 -117.5503 180° South 182 209 12,000  Level Seattle Center
Thu 05:42:38 PM 47.3967 -117.5506 180° South 183 211 12,000  Level Seattle Center
Thu 05:43:39 PM 47.3464 -117.5506 180° South 182 209 12,000  Level Seattle Center
Thu 05:44:40 PM 47.2928 -117.5511 180° South 180 207 12,000  Level Seattle Center
Thu 05:45:41 PM 47.2428 -117.5508 180° South 181 208 12,000  Level Seattle Center
Thu 05:46:42 PM 47.1919 -117.5514 180° South 183 211 12,000  Level Seattle Center
Thu 05:47:43 PM 47.1431 -117.5508 180° South 178 205 12,000  Level Seattle Center
Thu 05:48:44 PM 47.0994 -117.5719 198° South 169 194 12,000  Level Seattle Center
Thu 05:49:45 PM 47.0581 -117.6178 217° Southwest 173 199 12,000  Level Seattle Center
Thu 05:50:46 PM 47.0200 -117.6597 217° Southwest 172 198 12,000  Level Seattle Center
Thu 05:51:47 PM 46.9822 -117.7028 218° Southwest 173 199 12,000  Level Seattle Center
Thu 05:52:48 PM 46.9442 -117.7444 217° Southwest 172 198 12,000  Level Seattle Center
Thu 05:53:49 PM 46.9081 -117.7850 218° Southwest 164 189 12,000  Level Seattle Center
Thu 05:54:50 PM 46.8683 -117.8289 217° Southwest 166 191 12,000  Level Seattle Center
Thu 05:55:51 PM 46.8314 -117.8694 217° Southwest 166 191 12,000  Level Seattle Center
Thu 05:56:51 PM 46.8172 -117.9283 251° West 168 193 12,000  Level Seattle Center
Thu 05:57:52 PM 46.8181 -117.9950 271° West 162 186 12,000  Level Seattle Center
Thu 05:58:53 PM 46.8181 -118.0617 270° West 165 190 12,000  Level Seattle Center
Thu 05:59:57 PM 46.8164 -118.1325 268° West 156 180 12,000  Level Seattle Center
Thu 06:00:58 PM 46.8164 -118.1989 270° West 166 191 12,000  Level Seattle Center
Thu 06:01:59 PM 46.8169 -118.2656 270° West 167 192 12,000  Level Seattle Center
Thu 06:02:00 PM 46.8166 -118.2993 270° West  Level FlightAware Approximate
Thu 06:03:00 PM 46.8164 -118.3325 269° West 165 190 12,000  Level Seattle Center
Thu 06:04:01 PM 46.8156 -118.3989 269° West 164 189 12,000  Level Seattle Center
Thu 06:05:02 PM 46.7689 -118.4167 195° South 175 201 12,000  Level Seattle Center
Thu 06:06:03 PM 46.7192 -118.4181 181° South 174 200 12,000  Level Seattle Center
Thu 06:07:04 PM 46.6706 -118.4181 180° South 175 201 12,000  Level Seattle Center
Thu 06:08:05 PM 46.6194 -118.4164 179° South 182 209 12,000  Level Seattle Center
Thu 06:09:06 PM 46.5700 -118.4167 180° South 178 205 12,000  Level Seattle Center
Thu 06:10:07 PM 46.5200 -118.4181 181° South 180 207 12,000  Level Seattle Center
Thu 06:11:08 PM 46.4647 -118.4175 180° South 184 212 12,000  Level Seattle Center
Thu 06:12:08 PM 46.4189 -118.3958 162° South 196 226 12,000  Level Seattle Center
Thu 06:13:09 PM 46.4164 -118.3142 93° East 205 236 12,000  Level Seattle Center
Thu 06:14:10 PM 46.4161 -118.2303 90° East 209 241 12,000  Level Seattle Center
Thu 06:15:11 PM 46.4164 -118.1478 90° East 208 239 12,000 -49 Level Seattle Center
Thu 06:16:12 PM 46.4167 -118.0647 90° East 209 241 11,900 -49 Descending Seattle Center
Thu 06:17:13 PM 46.4347 -117.9994 68° East 206 237 11,900  Level Seattle Center
Thu 06:18:14 PM 46.4825 -118.0008 359° North 173 199 11,900  Level Seattle Center
Thu 06:19:15 PM 46.5306 -118.0008 360° North 172 198 11,900  Level Seattle Center
Thu 06:20:16 PM 46.5783 -117.9925 North 179 206 11,900  Level Seattle Center
Thu 06:21:17 PM 46.5831 -117.9147 85° East 205 236 11,900  Level Seattle Center
Thu 06:22:18 PM 46.5831 -117.8367 90° East 195 224 11,900  Level Seattle Center
Thu 06:23:19 PM 46.5831 -117.7572 90° East 196 226 11,900  Level Seattle Center
Thu 06:24:20 PM 46.5828 -117.6783 90° East 194 223 11,900  Level Seattle Center
Thu 06:25:21 PM 46.5833 -117.5861 89° East 193 222 11,900  Level Seattle Center
Thu 06:26:22 PM 46.5756 -117.5094 98° East 201 231 11,900  Level Seattle Center
Thu 06:27:23 PM 46.5258 -117.5000 173° South 188 216 11,900  Level Seattle Center
Thu 06:28:24 PM 46.4750 -117.5008 181° South 181 208 11,900  Level Seattle Center
Thu 06:29:25 PM 46.4253 -117.5036 182° South 181 208 11,900  Level Seattle Center
Thu 06:30:26 PM 46.3739 -117.5006 178° South 182 209 11,900  Level Seattle Center
Thu 06:31:27 PM 46.3239 -117.5006 180° South 181 208 11,900  Level Seattle Center
Thu 06:32:27 PM 46.2739 -117.5022 181° South 180 207 11,900  Level Seattle Center
Thu 06:33:28 PM 46.2244 -117.5028 180° South 181 208 11,900  Level Seattle Center
Thu 06:34:29 PM 46.1733 -117.5028 180° South 184 212 11,900  Level Seattle Center
Thu 06:35:30 PM 46.1222 -117.5011 179° South 184 212 11,900  Level Seattle Center
Thu 06:36:31 PM 46.0717 -117.5028 181° South 182 209 11,900  Level Seattle Center
Thu 06:37:32 PM 46.0097 -117.5017 179° South 186 214 11,900  Level Seattle Center
Thu 06:38:33 PM 45.9997 -117.5639 257° West 167 192 11,900  Level Seattle Center
Thu 06:39:34 PM 46.0008 -117.6542 271° West 218 251 11,900  Level Seattle Center
Thu 06:40:35 PM 46.0011 -117.7472 270° West 231 266 11,900  Level Seattle Center
Thu 06:41:36 PM 46.0008 -117.8375 270° West 228 262 11,900  Level Seattle Center
Thu 06:42:37 PM 46.0019 -117.9267 271° West 224 258 11,900  Level Seattle Center
Thu 06:43:38 PM 46.0014 -118.0169 270° West 226 260 11,900  Level Seattle Center
Thu 06:44:39 PM 46.0017 -118.1086 270° West 230 265 11,900 49 Level Seattle Center
Thu 06:45:40 PM 46.0019 -118.2086 270° West 228 262 12,000 50 Climbing Seattle Center
Thu 06:46:40 PM 46.0017 -118.3000 270° West 229 264 12,000  Level Seattle Center
Thu 06:47:41 PM 46.0014 -118.3911 270° West 228 262 12,000  Level Seattle Center
Thu 06:48:42 PM 46.0011 -118.4917 270° West 232 267 12,000  Level Seattle Center
Thu 06:49:43 PM 46.0003 -118.5872 269° West 237 273 12,000  Level Seattle Center
Thu 06:50:44 PM 46.0014 -118.6872 271° West 248 285 12,000  Level Seattle Center
Thu 06:51:45 PM 46.0008 -118.7928 270° West 261 300 12,000  Level Seattle Center
Thu 06:52:46 PM 46.0003 -118.8978 270° West 262 302 12,000  Level Seattle Center
Thu 06:53:47 PM 46.0008 -119.0053 270° West 269 310 12,000  Level Seattle Center
Thu 06:54:48 PM 46.0008 -119.1314 270° West 289 333 12,000  Level Seattle Center
Thu 06:55:49 PM 45.9994 -119.2467 269° West 288 331 12,000  Level Seattle Center
Thu 06:56:50 PM 46.0011 -119.3650 271° West 295 339 12,000  Level Seattle Center
Thu 06:57:51 PM 46.0011 -119.4808 270° West 291 335 12,000  Level Seattle Center
Thu 06:58:52 PM 46.0003 -119.5964 269° West 290 334 12,000  Level Seattle Center
Thu 06:59:53 PM 46.0011 -119.6989 271° West 255 293 12,000  Level Seattle Center
Thu 07:00:54 PM 46.0006 -119.7881 270° West 206 237 12,000  Level Seattle Center
Thu 07:01:55 PM 46.0000 -119.8711 269° West 207 238 12,000  Level Seattle Center
Thu 07:02:56 PM 45.9997 -119.9536 270° West 205 236 12,000 49 Level Seattle Center
Thu 07:03:57 PM 46.0100 -120.0358 280° West 212 244 12,100  Climbing Seattle Center
Thu 07:04:58 PM 46.0447 -120.1419 295° West 311 358 12,000 344 Descending Seattle Center
Thu 07:05:59 PM 46.0883 -120.2775 295° West 368 423 12,800 3,148 Climbing Seattle Center
Thu 07:07:00 PM 46.1433 -120.4506 295° West 417 480 18,400 1,075 Climbing Seattle Center
Thu 07:12:41 PM 46.4370 -121.3900 295° West 447 514 20,000 253 Climbing FlightAware ADS-B
Thu 07:13:20 PM 46.4697 -121.4960 294° West 449 517 20,000  Level FlightAware ADS-B
Thu 07:13:51 PM 46.4952 -121.5810 294° West 451 519 20,000  Level FlightAware ADS-B
Thu 07:14:25 PM 46.5237 -121.6740 294° West 450 518 20,000  Level FlightAware ADS-B
Thu 07:14:55 PM 46.5487 -121.7580 293° West 447 514 20,000  Level FlightAware ADS-B
Thu 07:15:26 PM 46.5728 -121.8380 294° West 404 465 20,000  Level FlightAware ADS-B
Thu 07:15:57 PM 46.5945 -121.9110 293° West 364 419 20,000  Level FlightAware ADS-B
Thu 07:16:03 PM 46.5993 -121.9250 297° West 358 412 20,000  Level FlightAware ADS-B
Thu 07:16:07 PM 46.6024 -121.9340 297° West 355 409 20,000  Level FlightAware ADS-B
Thu 07:16:13 PM 46.6076 -121.9450 305° West 351 404 20,000  Level FlightAware ADS-B
Thu 07:16:21 PM 46.6159 -121.9600 309° West 349 402 20,000  Level FlightAware ADS-B
Thu 07:16:29 PM 46.6248 -121.9730 315° West 349 402 20,000  Level FlightAware ADS-B
Thu 07:16:34 PM 46.6313 -121.9810 320° Northwest 357 411 20,000  Level FlightAware ADS-B
Thu 07:16:39 PM 46.6383 -121.9880 326° Northwest 369 425 20,000  Level FlightAware ADS-B
Thu 07:16:43 PM 46.6444 -121.9930 331° Northwest 379 436 20,000  Level FlightAware ADS-B
Thu 07:16:49 PM 46.6534 -122.0000 332° Northwest 393 452 20,000  Level FlightAware ADS-B
Thu 07:16:54 PM 46.6623 -122.0050 339° North 404 465 20,000  Level FlightAware ADS-B
Thu 07:17:25 PM 46.7209 -122.0280 345° North 447 514 20,000  Level FlightAware ADS-B
Thu 07:17:55 PM 46.7817 -122.0520 345° North 453 521 20,000  Level FlightAware ADS-B
Thu 07:18:25 PM 46.8425 -122.0750 345° North 453 521 20,000 -400 Level FlightAware ADS-B
Thu 07:18:55 PM 46.9037 -122.0990 345° North 446 513 19,600 -1,000 Descending FlightAware ADS-B
Thu 07:19:25 PM 46.9629 -122.1220 345° North 430 495 19,000 -590 Descending FlightAware ADS-B
Thu 07:19:56 PM 47.0182 -122.1440 345° North 388 447 19,000  Level FlightAware ADS-B
Thu 07:20:27 PM 47.0704 -122.1650 345° North 376 433 19,000  Level FlightAware ADS-B
Thu 07:20:57 PM 47.1208 -122.1850 345° North 376 433 19,000  Level FlightAware ADS-B
Thu 07:21:27 PM 47.1719 -122.2050 345° North 379 436 19,000 -393 Level FlightAware ADS-B
Thu 07:21:58 PM 47.2233 -122.2250 345° North 372 428 18,600 -1,322 Descending FlightAware ADS-B
Thu 07:22:26 PM 47.2702 -122.2420 346° North 367 422 17,700 -2,133 Descending FlightAware ADS-B
Thu 07:22:43 PM 47.2974 -122.2510 347° North 367 422 17,000 -2,609 Descending FlightAware ADS-B
Thu 07:22:49 PM 47.3085 -122.2530 353° North 368 423 16,700 -2,500 Descending FlightAware ADS-B
Thu 07:22:55 PM 47.3178 -122.2540 356° North 369 425 16,500 -2,000 Descending FlightAware ADS-B
Thu 07:22:58 PM 47.3230 -122.2540 360° North 369 425 16,400 -3,000 Descending FlightAware ADS-B
Thu 07:23:03 PM 47.3322 -122.2530 North 371 427 16,100 -2,727 Descending FlightAware ADS-B
Thu 07:23:09 PM 47.3425 -122.2501 11° North 371 427 15,900 -2,400 Descending FlightAware ADS-B
Thu 07:23:33 PM 47.3832 -122.2380 11° North 370 426 14,900 -2,233 Descending FlightAware ADS-B
Thu 07:23:52 PM 47.4130 -122.2291 11° North 363 418 14,300 -1,935 Descending FlightAware ADS-B
Thu 07:24:04 PM 47.4333 -122.2230 12° North 359 413 13,900 -2,143 Descending FlightAware ADS-B
Thu 07:24:34 PM 47.4817 -122.2080 12° North 353 406 12,800 -2,300 Descending FlightAware ADS-B
Thu 07:25:04 PM 47.5295 -122.1930 12° North 351 404 11,600 -1,574 Descending FlightAware ADS-B
Thu 07:25:35 PM 47.5768 -122.1790 11° North 326 375 11,200 -706 Descending FlightAware ADS-B
Thu 07:25:55 PM 47.6050 -122.1702 12° North 309 356 11,000 -581 Descending FlightAware ADS-B
Thu 07:26:06 PM 47.6213 -122.1660 10° North 301 346 10,900 -878 Descending FlightAware ADS-B
Thu 07:26:36 PM 47.6615 -122.1540 11° North 288 331 10,400 -1,125 Descending FlightAware ADS-B
Thu 07:26:54 PM 47.6848 -122.1480 10° North 286 329 10,000 -1,371 Descending FlightAware ADS-B
Thu 07:27:11 PM 47.7065 -122.1420 11° North 283 326 9,600 -1,400 Descending FlightAware ADS-B
Thu 07:27:24 PM 47.7237 -122.1380 North 283 326 9,300 -1,556 Descending FlightAware ADS-B
Thu 07:27:38 PM 47.7415 -122.1330 11° North 283 326 8,900 -1,714 Descending FlightAware ADS-B
Thu 07:27:45 PM 47.7504 -122.1310 North 281 323 8,700 -1,286 Descending FlightAware ADS-B
Thu 07:27:52 PM 47.7598 -122.1300 North 279 321 8,600 -1,143 Descending FlightAware ADS-B
Thu 07:28:06 PM 47.7766 -122.1300 360° North 275 316 8,300 -1,500 Descending FlightAware ADS-B
Thu 07:28:20 PM 47.7951 -122.1300 360° North 271 312 7,900 -1,655 Descending FlightAware ADS-B
Thu 07:28:35 PM 47.8140 -122.1310 358° North 268 308 7,500 -1,800 Descending FlightAware ADS-B
Thu 07:28:40 PM 47.8201 -122.1309 North 268 308 7,300 -2,625 Descending FlightAware ADS-B
Thu 07:28:51 PM 47.8330 -122.1310 360° North 269 310 6,800 -2,769 Descending FlightAware ADS-B
Thu 07:29:06 PM 47.8525 -122.1310 360° North 270 311 6,100 -2,710 Descending FlightAware ADS-B
Thu 07:29:22 PM 47.8719 -122.1320 358° North 266 306 5,400 -2,351 Descending FlightAware ADS-B
Thu 07:30:20 PM 47.9336 -122.1356 358° North 264 304 3,200 -1,674 Descending Seattle Center
Thu 07:30:48 PM 47.9697 -122.1383 357° North 237 273 3,000 -197 Descending Seattle Center
Thu 07:31:21 PM 47.9933 -122.1381 360° North 215 247 3,000  Level Seattle Center
Thu 07:31:49 PM 48.0219 -122.1422 354° North 180 207 3,000  Level Seattle Center
Thu 07:32:22 PM 48.0447 -122.1411 North 186 214 3,000  Level Seattle Center
Thu 07:32:50 PM 48.0733 -122.1433 357° North 184 212 3,000  Level Seattle Center
Thu 07:33:23 PM 48.0956 -122.1433 360° North 185 213 3,000  Level Seattle Center
Thu 07:33:51 PM 48.1231 -122.1553 344° North 186 214 3,000  Level Seattle Center
Thu 07:34:24 PM 48.1275 -122.1819 284° West 187 215 3,000  Level Seattle Center
Thu 07:34:52 PM 48.1275 -122.2258 270° West 170 196 3,000  Level Seattle Center
Thu 07:35:25 PM 48.1281 -122.2531 272° West 175 201 3,000  Level Seattle Center
Thu 07:35:53 PM 48.1106 -122.2817 228° Southwest 148 170 3,000  Level Seattle Center
Thu 07:36:26 PM 48.0892 -122.2906 196° South 145 167 3,000  Level Seattle Center
Thu 07:36:48 PM 48.0750 -122.2917 183° South 145 167 3,000  Level Seattle Center
Thu 07:37:27 PM 48.0489 -122.2886 176° South 144 166 3,000 -250 Level Seattle Center
Thu 07:38:00 PM 48.0256 -122.2894 181° South 142 163 2,700 -590 Descending Seattle Center
Thu 07:38:28 PM 48.0111 -122.2883 177° South 133 153 2,400 -689 Descending Seattle Center
Thu 07:39:01 PM 47.9919 -122.2883 180° South 131 151 2,000 -700 Descending Seattle Center
Thu 07:39:28 PM 47.9767 -122.2872 177° South 126 145 1,700 -689 Descending Seattle Center
Thu 07:40:02 PM 47.9583 -122.2872 180° South 121 139 1,300 -689 Descending Seattle Center
Thu 07:40:29 PM 47.9431 -122.2869 179° South 121 139 1,000 -341 Descending Seattle Center
Thu 07:41:30 PM 47.9128 -122.2861 179° South 119 137 800 -197 Descending Seattle Center
Thu 07:43:00 PM 47.9070 -122.2816 10° North  Level Estimated

Login

Don't have an account? Register now (free) for customized features, flight alerts, and more!